Time,TemperatureF,DewpointF,PressureIn,WindDirection,WindDirectionDegrees,WindSpeedMPH,WindSpeedGustMPH,Humidity,HourlyPrecipIn,Conditions,Clouds,dailyrainin,SoftwareType,DateUTC
2013-10-21 00:01:00,45.0,37.2,29.71,East,80,0.0,0.0,74,0.00,RA,SCT,0.00,WeatherDisplay:10.37,2013-10-21 04:01:00,
2013-10-21 00:02:00,45.0,37.2,29.72,East,80,0.0,0.0,74,0.00,RA,SCT,0.00,WeatherDisplay:10.37,2013-10-21 04:02:00,
2013-10-21 00:07:00,44.9,37.1,29.72,East,80,0.0,0.0,74,0.00,RA,SCT,0.00,WeatherDisplay:10.37,2013-10-21 04:07:00,
2013-10-21 00:12:00,44.9,36.8,29.72,East,80,0.0,0.0,73,0.00,CLR,SCT,0.00,WeatherDisplay:10.37,2013-10-21 04:12:00,
2013-10-21 00:17:00,45.1,37.0,29.72,East,80,0.0,0.0,73,0.00,CLR,SCT,0.00,WeatherDisplay:10.37,2013-10-21 04:17:00,
2013-10-21 00:22:00,45.1,37.3,29.72,East,80,0.0,1.1,74,0.00,CLR,SCT,0.00,WeatherDisplay:10.37,2013-10-21 04:22:00,
2013-10-21 00:27:00,45.0,37.2,29.71,East,80,0.0,1.1,74,0.00,CLR,SCT,0.00,WeatherDisplay:10.37,2013-10-21 04:27:00,
2013-10-21 00:32:00,45.0,36.9,29.71,East,80,0.0,0.0,73,0.00,CLR,SCT,0.00,WeatherDisplay:10.37,2013-10-21 04:32:00,
2013-10-21 00:37:00,45.0,37.2,29.71,East,80,0.0,0.0,74,0.00,CLR,SCT,0.00,WeatherDisplay:10.37,2013-10-21 04:37:00,
2013-10-21 00:42:00,44.9,37.8,29.71,East,80,0.1,1.1,76,0.00,CLR,SCT,0.00,WeatherDisplay:10.37,2013-10-21 04:42:00,
2013-10-21 00:47:00,44.7,37.6,29.72,East,80,0.1,1.1,76,0.00,CLR,SCT,0.00,WeatherDisplay:10.37,2013-10-21 04:47:00,
2013-10-21 00:52:00,44.5,37.7,29.72,East,80,0.0,0.0,77,0.00,CLR,SCT,0.00,WeatherDisplay:10.37,2013-10-21 04:52:00,
2013-10-21 00:57:00,44.5,37.7,29.72,East,80,0.1,1.1,77,0.00,CLR,SCT,0.00,WeatherDisplay:10.37,2013-10-21 04:57:00,
2013-10-21 01:02:00,44.5,37.4,29.72,East,80,0.1,1.1,76,0.00,CLR,SCT,0.00,WeatherDisplay:10.37,2013-10-21 05:02:00,
2013-10-21 01:07:00,44.6,37.2,29.72,East,80,0.0,0.0,75,0.00,CLR,SCT,0.00,WeatherDisplay:10.37,2013-10-21 05:07:00,
2013-10-21 01:12:00,44.6,37.2,29.72,East,80,0.0,1.1,75,0.00,CLR,SCT,0.00,WeatherDisplay:10.37,2013-10-21 05:12:00,
2013-10-21 01:17:00,44.6,37.2,29.72,East,80,0.0,0.0,75,0.00,CLR,SCT,0.00,WeatherDisplay:10.37,2013-10-21 05:17:00,
2013-10-21 01:22:00,44.5,37.1,29.72,East,80,0.0,0.0,75,0.00,CLR,SCT,0.00,WeatherDisplay:10.37,2013-10-21 05:22:00,
2013-10-21 01:27:00,44.4,37.3,29.72,East,80,0.2,1.1,76,0.00,CLR,SCT,0.00,WeatherDisplay:10.37,2013-10-21 05:27:00,
2013-10-21 01:32:00,44.3,37.5,29.72,East,80,0.0,0.0,77,0.00,CLR,SCT,0.00,WeatherDisplay:10.37,2013-10-21 05:32:00,
2013-10-21 01:37:00,44.2,37.1,29.73,East,80,0.0,0.0,76,0.00,CLR,SCT,0.00,WeatherDisplay:10.37,2013-10-21 05:37:00,
2013-10-21 01:42:00,44.1,37.3,29.73,East,80,0.0,0.0,77,0.00,CLR,SCT,0.00,WeatherDisplay:10.37,2013-10-21 05:42:00,
2013-10-21 01:47:00,43.8,37.7,29.73,East,80,0.2,1.1,79,0.00,CLR,SCT,0.00,WeatherDisplay:10.37,2013-10-21 05:47:00,
2013-10-21 01:52:00,43.5,37.4,29.73,East,80,0.1,1.1,79,0.00,CLR,SCT,0.00,WeatherDisplay:10.37,2013-10-21 05:52:00,
2013-10-21 01:57:00,43.4,37.3,29.73,East,80,0.1,1.1,79,0.00,CLR,SCT,0.00,WeatherDisplay:10.37,2013-10-21 05:57:00,
2013-10-21 02:02:00,43.2,37.1,29.73,East,80,0.0,1.1,79,0.00,CLR,SCT,0.00,WeatherDisplay:10.37,2013-10-21 06:02:00,
2013-10-21 02:07:00,43.2,37.1,29.73,East,80,0.1,1.1,79,0.00,CLR,SCT,0.00,WeatherDisplay:10.37,2013-10-21 06:07:00,
2013-10-21 02:12:00,43.2,37.4,29.73,East,80,0.1,1.1,80,0.00,CLR,SCT,0.00,WeatherDisplay:10.37,2013-10-21 06:12:00,
2013-10-21 02:17:00,43.1,37.3,29.73,East,80,0.0,0.0,80,0.00,CLR,SCT,0.00,WeatherDisplay:10.37,2013-10-21 06:17:00,
2013-10-21 02:22:00,43.0,37.3,29.73,East,80,0.0,1.1,80,0.00,CLR,SCT,0.00,WeatherDisplay:10.37,2013-10-21 06:22:00,
2013-10-21 02:27:00,42.9,37.2,29.73,East,80,0.0,0.0,80,0.00,CLR,SCT,0.00,WeatherDisplay:10.37,2013-10-21 06:27:00,
2013-10-21 02:32:00,42.8,37.4,29.73,East,80,0.1,1.0,81,0.00,CLR,SCT,0.00,WeatherDisplay:10.37,2013-10-21 06:32:00,
2013-10-21 02:37:00,42.7,37.6,29.74,East,80,0.1,1.1,82,0.00,CLR,SCT,0.00,WeatherDisplay:10.37,2013-10-21 06:37:00,
2013-10-21 02:42:00,42.7,37.6,29.74,East,80,0.3,1.1,82,0.00,CLR,SCT,0.00,WeatherDisplay:10.37,2013-10-21 06:42:00,
2013-10-21 02:47:00,42.6,37.5,29.74,East,80,0.0,0.0,82,0.00,CLR,SCT,0.00,WeatherDisplay:10.37,2013-10-21 06:47:00,
2013-10-21 02:52:00,42.6,37.5,29.74,East,80,0.0,0.0,82,0.00,CLR,SCT,0.00,WeatherDisplay:10.37,2013-10-21 06:52:00,
2013-10-21 02:57:00,42.7,37.6,29.74,East,80,0.0,0.0,82,0.00,CLR,SCT,0.00,WeatherDisplay:10.37,2013-10-21 06:57:00,
2013-10-21 03:02:00,42.7,37.9,29.74,East,80,0.1,1.0,83,0.00,CLR,SCT,0.00,WeatherDisplay:10.37,2013-10-21 07:02:00,
2013-10-21 03:07:00,42.7,37.6,29.74,East,80,0.0,1.1,82,0.00,CLR,SCT,0.00,WeatherDisplay:10.37,2013-10-21 07:07:00,
2013-10-21 03:12:00,42.8,37.4,29.74,East,80,0.0,0.0,81,0.00,CLR,SCT,0.00,WeatherDisplay:10.37,2013-10-21 07:12:00,
2013-10-21 03:17:00,42.9,37.2,29.74,East,80,0.0,1.1,80,0.00,CLR,SCT,0.00,WeatherDisplay:10.37,2013-10-21 07:17:00,
2013-10-21 03:22:00,42.9,37.2,29.74,East,80,0.0,0.0,80,0.00,CLR,SCT,0.00,WeatherDisplay:10.37,2013-10-21 07:22:00,
2013-10-21 03:27:00,43.0,36.9,29.74,East,80,0.0,0.0,79,0.00,CLR,SCT,0.00,WeatherDisplay:10.37,2013-10-21 07:27:00,
2013-10-21 03:32:00,43.1,37.0,29.74,East,80,0.0,0.0,79,0.00,CLR,SCT,0.00,WeatherDisplay:10.37,2013-10-21 07:32:00,
2013-10-21 03:37:00,43.1,37.0,29.74,East,80,0.0,0.0,79,0.00,CLR,SCT,0.00,WeatherDisplay:10.37,2013-10-21 07:37:00,
2013-10-21 03:42:00,43.0,37.3,29.74,East,80,0.0,0.0,80,0.00,CLR,SCT,0.00,WeatherDisplay:10.37,2013-10-21 07:42:00,
2013-10-21 03:47:00,43.0,37.3,29.74,East,80,0.0,0.0,80,0.00,CLR,SCT,0.00,WeatherDisplay:10.37,2013-10-21 07:47:00,
2013-10-21 03:52:00,42.9,37.5,29.74,East,80,0.0,0.0,81,0.00,CLR,SCT,0.00,WeatherDisplay:10.37,2013-10-21 07:52:00,
2013-10-21 03:57:00,42.9,37.5,29.74,East,80,0.0,0.0,81,0.00,CLR,SCT,0.00,WeatherDisplay:10.37,2013-10-21 07:57:00,
2013-10-21 04:02:00,42.9,37.2,29.74,East,80,0.1,1.1,80,0.00,CLR,SCT,0.00,WeatherDisplay:10.37,2013-10-21 08:02:00,
2013-10-21 04:07:00,43.0,37.3,29.75,East,80,0.0,0.0,80,0.00,CLR,SCT,0.00,WeatherDisplay:10.37,2013-10-21 08:07:00,
2013-10-21 04:12:00,43.0,37.6,29.75,East,80,0.0,0.0,81,0.00,CLR,SCT,0.00,WeatherDisplay:10.37,2013-10-21 08:12:00,
2013-10-21 04:17:00,42.9,37.5,29.75,East,80,0.0,0.0,81,0.00,CLR,SCT,0.00,WeatherDisplay:10.37,2013-10-21 08:17:00,
2013-10-21 04:22:00,42.9,37.5,29.75,East,80,0.0,0.0,81,0.00,CLR,SCT,0.00,WeatherDisplay:10.37,2013-10-21 08:22:00,
2013-10-21 04:27:00,42.8,37.1,29.75,East,80,0.0,0.0,80,0.00,CLR,SCT,0.00,WeatherDisplay:10.37,2013-10-21 08:27:00,
2013-10-21 04:32:00,42.7,37.0,29.75,East,80,0.0,0.0,80,0.00,CLR,SCT,0.00,WeatherDisplay:10.37,2013-10-21 08:32:00,
2013-10-21 04:37:00,42.7,37.3,29.75,East,80,0.0,0.0,81,0.00,CLR,SCT,0.00,WeatherDisplay:10.37,2013-10-21 08:37:00,
2013-10-21 04:42:00,42.6,37.2,29.75,East,80,0.0,0.0,81,0.00,CLR,SCT,0.00,WeatherDisplay:10.37,2013-10-21 08:42:00,
2013-10-21 04:47:00,42.5,36.8,29.75,East,80,0.0,0.0,80,0.00,CLR,SCT,0.00,WeatherDisplay:10.37,2013-10-21 08:47:00,
2013-10-21 04:52:00,42.4,36.7,29.75,East,80,0.0,0.0,80,0.00,CLR,SCT,0.00,WeatherDisplay:10.37,2013-10-21 08:52:00,
2013-10-21 04:57:00,42.3,36.9,29.75,East,80,0.0,0.0,81,0.00,CLR,SCT,0.00,WeatherDisplay:10.37,2013-10-21 08:57:00,
2013-10-21 05:02:00,42.3,36.9,29.75,East,80,0.0,0.0,81,0.00,CLR,SCT,0.00,WeatherDisplay:10.37,2013-10-21 09:02:00,
2013-10-21 05:07:00,42.2,36.8,29.75,East,80,0.0,0.0,81,0.00,CLR,SCT,0.00,WeatherDisplay:10.37,2013-10-21 09:07:00,
2013-10-21 05:12:00,42.1,36.7,29.76,East,80,0.0,0.0,81,0.00,CLR,SCT,0.00,WeatherDisplay:10.37,2013-10-21 09:12:00,
2013-10-21 05:17:00,42.1,36.7,29.76,East,80,0.0,0.0,81,0.00,CLR,SCT,0.00,WeatherDisplay:10.37,2013-10-21 09:17:00,
2013-10-21 05:22:00,42.0,36.6,29.76,East,80,0.0,0.0,81,0.00,CLR,SCT,0.00,WeatherDisplay:10.37,2013-10-21 09:22:00,
2013-10-21 05:27:00,42.0,36.9,29.75,East,80,0.0,0.0,82,0.00,CLR,SCT,0.00,WeatherDisplay:10.37,2013-10-21 09:27:00,
2013-10-21 05:32:00,42.0,36.6,29.76,East,80,0.0,0.0,81,0.00,CLR,SCT,0.00,WeatherDisplay:10.37,2013-10-21 09:32:00,
2013-10-21 05:37:00,41.9,36.8,29.76,East,80,0.0,0.0,82,0.00,CLR,SCT,0.00,WeatherDisplay:10.37,2013-10-21 09:37:00,
2013-10-21 05:42:00,41.9,36.8,29.76,East,80,0.0,0.0,82,0.00,CLR,SCT,0.00,WeatherDisplay:10.37,2013-10-21 09:42:00,
2013-10-21 05:47:00,41.8,36.7,29.76,East,80,0.0,0.0,82,0.00,CLR,SCT,0.00,WeatherDisplay:10.37,2013-10-21 09:47:00,
2013-10-21 05:52:00,41.7,36.6,29.76,East,80,0.0,0.0,82,0.00,CLR,SCT,0.00,WeatherDisplay:10.37,2013-10-21 09:52:00,
2013-10-21 05:57:00,41.7,36.6,29.76,East,80,0.0,0.0,82,0.00,CLR,SCT,0.00,WeatherDisplay:10.37,2013-10-21 09:57:00,
2013-10-21 06:02:00,41.6,36.5,29.77,East,80,0.0,0.0,82,0.00,CLR,SCT,0.00,WeatherDisplay:10.37,2013-10-21 10:02:00,
2013-10-21 06:07:00,41.6,36.8,29.77,East,80,0.0,0.0,83,0.00,CLR,SCT,0.00,WeatherDisplay:10.37,2013-10-21 10:07:00,
2013-10-21 06:12:00,41.6,36.5,29.77,East,80,0.0,0.0,82,0.00,CLR,SCT,0.00,WeatherDisplay:10.37,2013-10-21 10:12:00,
2013-10-21 06:17:00,41.5,36.7,29.77,East,80,0.0,0.0,83,0.00,CLR,SCT,0.00,WeatherDisplay:10.37,2013-10-21 10:17:00,
2013-10-21 06:22:00,41.4,36.9,29.77,East,80,0.0,0.0,84,0.00,CLR,SCT,0.00,WeatherDisplay:10.37,2013-10-21 10:22:00,
2013-10-21 06:27:00,41.3,36.5,29.77,East,80,0.0,0.0,83,0.00,CLR,SCT,0.00,WeatherDisplay:10.37,2013-10-21 10:27:00,
2013-10-21 06:32:00,41.4,36.6,29.77,East,80,0.0,0.0,83,0.00,CLR,SCT,0.00,WeatherDisplay:10.37,2013-10-21 10:32:00,
2013-10-21 06:37:00,41.3,36.8,29.77,East,80,0.0,0.0,84,0.00,CLR,SCT,0.00,WeatherDisplay:10.37,2013-10-21 10:37:00,
2013-10-21 06:42:00,41.3,36.5,29.77,East,80,0.0,0.0,83,0.00,CLR,SCT,0.00,WeatherDisplay:10.37,2013-10-21 10:42:00,
2013-10-21 06:47:00,41.3,36.8,29.77,East,80,0.0,0.0,84,0.00,CLR,SCT,0.00,WeatherDisplay:10.37,2013-10-21 10:47:00,
2013-10-21 06:52:00,41.3,36.8,29.77,East,80,0.0,0.0,84,0.00,CLR,SCT,0.00,WeatherDisplay:10.37,2013-10-21 10:52:00,
2013-10-21 06:57:00,41.2,37.0,29.78,East,80,0.0,0.0,85,0.00,CLR,SCT,0.00,WeatherDisplay:10.37,2013-10-21 10:57:00,
2013-10-21 07:02:00,41.1,36.9,29.78,East,80,0.0,0.0,85,0.00,CLR,SCT,0.00,WeatherDisplay:10.37,2013-10-21 11:02:00,
2013-10-21 07:07:00,41.1,36.6,29.78,East,80,0.0,0.0,84,0.00,CLR,SCT,0.00,WeatherDisplay:10.37,2013-10-21 11:07:00,
2013-10-21 07:12:00,41.2,36.7,29.78,East,80,0.0,0.0,84,0.00,CLR,SCT,0.00,WeatherDisplay:10.37,2013-10-21 11:12:00,
2013-10-21 07:17:00,41.2,36.7,29.78,East,80,0.0,0.0,84,0.00,CLR,SCT,0.00,WeatherDisplay:10.37,2013-10-21 11:17:00,
2013-10-21 07:22:00,41.1,37.5,29.78,East,80,0.0,0.0,87,0.00,CLR,SCT,0.00,WeatherDisplay:10.37,2013-10-21 11:22:00,
2013-10-21 07:27:00,41.0,37.4,29.78,East,80,0.0,0.0,87,0.00,CLR,SCT,0.00,WeatherDisplay:10.37,2013-10-21 11:27:00,
2013-10-21 07:32:00,40.9,36.7,29.78,East,80,0.0,0.0,85,0.00,CLR,SCT,0.00,WeatherDisplay:10.37,2013-10-21 11:32:00,
2013-10-21 07:37:00,41.0,36.8,29.78,East,80,0.0,0.0,85,0.00,CLR,SCT,0.00,WeatherDisplay:10.37,2013-10-21 11:37:00,
2013-10-21 07:42:00,41.1,36.6,29.78,East,80,0.0,0.0,84,0.00,CLR,SCT,0.00,WeatherDisplay:10.37,2013-10-21 11:42:00,
2013-10-21 07:47:00,41.3,36.8,29.79,East,80,0.0,0.0,84,0.00,CLR,SCT,0.00,WeatherDisplay:10.37,2013-10-21 11:47:00,
2013-10-21 07:52:00,41.6,36.8,29.79,East,80,0.0,0.0,83,0.00,CLR,SCT,0.00,WeatherDisplay:10.37,2013-10-21 11:52:00,
2013-10-21 07:57:00,41.7,36.9,29.79,East,80,0.0,0.0,83,0.00,CLR,SCT,0.00,WeatherDisplay:10.37,2013-10-21 11:57:00,
2013-10-21 08:02:00,41.9,36.8,29.79,East,80,0.0,0.0,82,0.00,CLR,SCT,0.00,WeatherDisplay:10.37,2013-10-21 12:02:00,
2013-10-21 08:07:00,42.1,37.0,29.80,East,80,0.0,0.0,82,0.00,CLR,SCT,0.00,WeatherDisplay:10.37,2013-10-21 12:07:00,
2013-10-21 08:12:00,42.4,37.6,29.80,East,80,0.0,0.0,83,0.00,CLR,SCT,0.00,WeatherDisplay:10.37,2013-10-21 12:12:00,
2013-10-21 08:17:00,42.6,37.8,29.80,East,80,0.0,0.0,83,0.00,CLR,SCT,0.00,WeatherDisplay:10.37,2013-10-21 12:17:00,
2013-10-21 08:22:00,42.7,38.8,29.80,East,80,0.0,0.0,86,0.00,CLR,SCT,0.00,WeatherDisplay:10.37,2013-10-21 12:22:00,
2013-10-21 08:27:00,42.7,38.5,29.80,East,80,0.0,0.0,85,0.00,CLR,SCT,0.00,WeatherDisplay:10.37,2013-10-21 12:27:00,
2013-10-21 08:32:00,42.8,38.6,29.80,East,80,0.0,0.0,85,0.00,CLR,SCT,0.00,WeatherDisplay:10.37,2013-10-21 12:32:00,
2013-10-21 08:37:00,43.3,39.1,29.80,East,80,0.0,0.0,85,0.00,CLR,SCT,0.00,WeatherDisplay:10.37,2013-10-21 12:37:00,
2013-10-21 08:42:00,44.1,39.0,29.80,East,80,0.0,0.0,82,0.00,CLR,SCT,0.00,WeatherDisplay:10.37,2013-10-21 12:42:00,
2013-10-21 08:47:00,44.7,39.5,29.80,East,80,0.0,0.0,82,0.00,CLR,SCT,0.00,WeatherDisplay:10.37,2013-10-21 12:47:00,
2013-10-21 08:52:00,45.0,39.8,29.80,East,80,0.0,0.0,82,0.00,CLR,SCT,0.00,WeatherDisplay:10.37,2013-10-21 12:52:00,
2013-10-21 08:57:00,45.2,39.7,29.81,East,80,0.0,0.0,81,0.00,CLR,SCT,0.00,WeatherDisplay:10.37,2013-10-21 12:57:00,
2013-10-21 09:02:00,45.5,40.3,29.81,East,80,0.0,0.0,82,0.00,CLR,SCT,0.00,WeatherDisplay:10.37,2013-10-21 13:02:00,
2013-10-21 09:07:00,46.1,40.9,29.81,East,80,0.0,0.0,82,0.00,CLR,SCT,0.00,WeatherDisplay:10.37,2013-10-21 13:07:00,
2013-10-21 09:12:00,46.3,40.8,29.81,East,80,0.0,0.0,81,0.00,CLR,SCT,0.00,WeatherDisplay:10.37,2013-10-21 13:12:00,
2013-10-21 09:17:00,46.5,40.7,29.81,East,80,0.0,0.0,80,0.00,CLR,SCT,0.00,WeatherDisplay:10.37,2013-10-21 13:17:00,
2013-10-21 09:22:00,46.7,40.9,29.81,East,80,0.0,0.0,80,0.00,CLR,SCT,0.00,WeatherDisplay:10.37,2013-10-21 13:22:00,
2013-10-21 09:27:00,47.0,40.8,29.80,East,80,0.0,0.0,79,0.00,CLR,SCT,0.00,WeatherDisplay:10.37,2013-10-21 13:27:00,
2013-10-21 09:32:00,47.4,40.9,29.80,East,80,0.0,0.0,78,0.00,CLR,SCT,0.00,WeatherDisplay:10.37,2013-10-21 13:32:00,
2013-10-21 09:37:00,47.7,41.5,29.80,East,80,0.0,0.0,79,0.00,CLR,SCT,0.00,WeatherDisplay:10.37,2013-10-21 13:37:00,
2013-10-21 09:42:00,48.0,40.5,29.80,East,80,0.2,1.1,75,0.00,CLR,SCT,0.00,WeatherDisplay:10.37,2013-10-21 13:42:00,
2013-10-21 09:47:00,48.5,40.6,29.80,SSE,149,0.3,2.3,74,0.00,CLR,SCT,0.00,WeatherDisplay:10.37,2013-10-21 13:47:00,
2013-10-21 09:52:00,48.8,41.6,29.80,SSE,149,0.1,1.1,76,0.00,CLR,SCT,0.00,WeatherDisplay:10.37,2013-10-21 13:52:00,
2013-10-21 09:57:00,49.0,41.4,29.80,SSE,149,0.0,0.0,75,0.00,CLR,SCT,0.00,WeatherDisplay:10.37,2013-10-21 13:57:00,
2013-10-21 10:02:00,49.3,41.4,29.80,SSE,149,0.1,0.0,74,0.00,CLR,SCT,0.00,WeatherDisplay:10.37,2013-10-21 14:02:00,
2013-10-21 10:07:00,49.6,41.3,29.80,SSE,149,0.0,0.0,73,0.00,CLR,SCT,0.00,WeatherDisplay:10.37,2013-10-21 14:07:00,
2013-10-21 10:12:00,49.9,41.6,29.80,SSE,149,0.2,1.1,73,0.00,CLR,SCT,0.00,WeatherDisplay:10.37,2013-10-21 14:12:00,
2013-10-21 10:17:00,50.2,42.2,29.80,SSE,149,0.0,0.0,74,0.00,CLR,SCT,0.00,WeatherDisplay:10.37,2013-10-21 14:17:00,
2013-10-21 10:22:00,50.5,42.2,29.80,SSE,149,0.0,1.1,73,0.00,CLR,SCT,0.00,WeatherDisplay:10.37,2013-10-21 14:22:00,
2013-10-21 10:27:00,50.6,42.3,29.80,SSE,149,0.0,0.0,73,0.00,CLR,SCT,0.00,WeatherDisplay:10.37,2013-10-21 14:27:00,
2013-10-21 10:32:00,50.9,42.9,29.80,SSE,149,0.0,0.0,74,0.00,CLR,SCT,0.00,WeatherDisplay:10.37,2013-10-21 14:32:00,
2013-10-21 10:37:00,51.1,42.0,29.79,SSE,149,0.1,1.1,71,0.00,CLR,SCT,0.00,WeatherDisplay:10.37,2013-10-21 14:37:00,
2013-10-21 10:42:00,51.5,42.0,29.79,SSE,149,0.0,0.0,70,0.00,CLR,SCT,0.00,WeatherDisplay:10.37,2013-10-21 14:42:00,
2013-10-21 10:47:00,51.8,42.3,29.79,SSE,149,0.0,0.0,70,0.00,CLR,SCT,0.00,WeatherDisplay:10.37,2013-10-21 14:47:00,
2013-10-21 10:52:00,52.2,42.7,29.79,SSE,149,0.0,0.0,70,0.00,CLR,SCT,0.00,WeatherDisplay:10.37,2013-10-21 14:52:00,
2013-10-21 10:57:00,52.6,42.3,29.79,SSE,149,0.0,1.1,68,0.00,CLR,SCT,0.00,WeatherDisplay:10.37,2013-10-21 14:57:00,
2013-10-21 11:02:00,53.0,43.1,29.79,SSE,149,0.2,1.1,69,0.00,CLR,SCT,0.00,WeatherDisplay:10.37,2013-10-21 15:02:00,
2013-10-21 11:07:00,53.4,42.7,29.79,SSE,149,0.1,1.1,67,0.00,CLR,SCT,0.00,WeatherDisplay:10.37,2013-10-21 15:07:00,
2013-10-21 11:12:00,53.9,42.8,29.79,SSE,149,0.4,1.1,66,0.00,CLR,SCT,0.00,WeatherDisplay:10.37,2013-10-21 15:12:00,
2013-10-21 11:17:00,54.4,44.1,29.79,SE,127,0.0,1.1,68,0.00,CLR,SCT,0.00,WeatherDisplay:10.37,2013-10-21 15:17:00,
2013-10-21 11:22:00,54.6,43.5,29.78,SE,127,0.0,1.1,66,0.00,CLR,SCT,0.00,WeatherDisplay:10.37,2013-10-21 15:22:00,
2013-10-21 11:27:00,54.8,43.7,29.78,SE,127,0.2,1.1,66,0.00,CLR,SCT,0.00,WeatherDisplay:10.37,2013-10-21 15:27:00,
2013-10-21 11:32:00,55.0,43.4,29.78,SE,127,0.1,1.1,65,0.00,CLR,SCT,0.00,WeatherDisplay:10.37,2013-10-21 15:32:00,
2013-10-21 11:37:00,55.3,42.9,29.78,West,269,0.7,2.3,63,0.00,CLR,SCT,0.00,WeatherDisplay:10.37,2013-10-21 15:37:00,
2013-10-21 11:42:00,55.7,41.6,29.78,West,269,0.4,2.3,59,0.00,CLR,SCT,0.00,WeatherDisplay:10.37,2013-10-21 15:42:00,
2013-10-21 11:47:00,56.0,42.7,29.78,West,267,0.8,2.3,61,0.00,CLR,SCT,0.00,WeatherDisplay:10.37,2013-10-21 15:47:00,
2013-10-21 11:52:00,56.6,41.5,29.78,SW,230,0.4,1.1,57,0.00,CLR,SCT,0.00,WeatherDisplay:10.37,2013-10-21 15:52:00,
2013-10-21 11:57:00,56.9,43.2,29.78,NW,319,0.1,1.1,60,0.00,CLR,SCT,0.00,WeatherDisplay:10.37,2013-10-21 15:57:00,
2013-10-21 12:02:00,57.3,42.6,29.77,SSW,198,0.9,2.3,58,0.00,CLR,SCT,0.00,WeatherDisplay:10.37,2013-10-21 16:02:00,
2013-10-21 12:07:00,57.6,42.0,29.77,SSW,202,0.0,0.0,56,0.00,CLR,SCT,0.00,WeatherDisplay:10.37,2013-10-21 16:07:00,
2013-10-21 12:12:00,57.8,42.7,29.77,West,279,1.5,2.3,57,0.00,CLR,SCT,0.00,WeatherDisplay:10.37,2013-10-21 16:12:00,
2013-10-21 12:17:00,58.1,41.5,29.77,West,275,0.0,1.1,54,0.00,CLR,SCT,0.00,WeatherDisplay:10.37,2013-10-21 16:17:00,
2013-10-21 12:22:00,58.6,42.0,29.77,NNW,329,1.1,3.5,54,0.00,CLR,SCT,0.00,WeatherDisplay:10.37,2013-10-21 16:22:00,
2013-10-21 12:27:00,58.7,41.1,29.76,ESE,118,0.0,1.1,52,0.00,CLR,SCT,0.00,WeatherDisplay:10.37,2013-10-21 16:27:00,
2013-10-21 12:32:00,58.8,40.7,29.76,ENE,67,0.2,2.3,51,0.00,CLR,SCT,0.00,WeatherDisplay:10.37,2013-10-21 16:32:00,
2013-10-21 12:37:00,59.0,41.9,29.76,SSW,205,1.3,2.3,53,0.00,CLR,SCT,0.00,WeatherDisplay:10.37,2013-10-21 16:37:00,
2013-10-21 12:42:00,59.4,40.2,29.75,South,170,2.4,6.9,49,0.00,CLR,SCT,0.00,WeatherDisplay:10.37,2013-10-21 16:42:00,
2013-10-21 12:47:00,59.8,40.1,29.75,SE,132,0.7,4.0,48,0.00,CLR,SCT,0.00,WeatherDisplay:10.37,2013-10-21 16:47:00,
2013-10-21 12:52:00,60.1,39.8,29.75,SE,136,1.1,2.3,47,0.00,CLR,SCT,0.00,WeatherDisplay:10.37,2013-10-21 16:52:00,
2013-10-21 12:57:00,60.4,41.1,29.75,SSE,155,1.0,2.3,49,0.00,CLR,SCT,0.00,WeatherDisplay:10.37,2013-10-21 16:57:00,
2013-10-21 13:02:00,60.7,40.9,29.75,ESE,123,0.1,1.1,48,0.00,CLR,SCT,0.00,WeatherDisplay:10.37,2013-10-21 17:02:00,
2013-10-21 13:07:00,60.7,39.8,29.75,SSE,155,1.4,2.3,46,0.00,CLR,SCT,0.00,WeatherDisplay:10.37,2013-10-21 17:07:00,
2013-10-21 13:12:00,60.8,41.0,29.74,SE,137,0.8,2.3,48,0.00,CLR,SCT,0.00,WeatherDisplay:10.37,2013-10-21 17:12:00,
2013-10-21 13:17:00,61.0,39.5,29.74,SSE,161,2.1,4.0,45,0.00,CLR,SCT,0.00,WeatherDisplay:10.37,2013-10-21 17:17:00,
2013-10-21 13:22:00,61.1,40.1,29.74,ESE,117,0.6,2.3,46,0.00,CLR,SCT,0.00,WeatherDisplay:10.37,2013-10-21 17:22:00,
2013-10-21 13:27:00,61.4,41.0,29.74,West,261,1.6,2.3,47,0.00,CLR,SCT,0.00,WeatherDisplay:10.37,2013-10-21 17:27:00,
2013-10-21 13:32:00,61.6,39.5,29.74,South,182,1.8,4.6,44,0.00,CLR,SCT,0.00,WeatherDisplay:10.37,2013-10-21 17:32:00,
2013-10-21 13:37:00,62.1,41.6,29.74,SSW,197,0.4,1.1,47,0.00,CLR,SCT,0.00,WeatherDisplay:10.37,2013-10-21 17:37:00,
2013-10-21 13:42:00,62.4,40.8,29.73,SSW,192,1.3,2.3,45,0.00,CLR,SCT,0.00,WeatherDisplay:10.37,2013-10-21 17:42:00,
2013-10-21 13:47:00,62.0,41.0,29.73,WSW,242,0.2,1.1,46,0.00,CLR,SCT,0.00,WeatherDisplay:10.37,2013-10-21 17:47:00,
2013-10-21 13:52:00,61.9,40.9,29.73,South,175,2.0,3.5,46,0.00,CLR,SCT,0.00,WeatherDisplay:10.37,2013-10-21 17:52:00,
2013-10-21 13:57:00,61.8,40.8,29.73,South,173,2.5,4.6,46,0.00,CLR,SCT,0.00,WeatherDisplay:10.37,2013-10-21 17:57:00,
2013-10-21 14:02:00,61.5,40.5,29.72,South,176,1.3,3.5,46,0.00,CLR,SCT,0.00,WeatherDisplay:10.37,2013-10-21 18:02:00,
2013-10-21 14:07:00,61.5,39.9,29.72,SSW,194,0.7,2.3,45,0.00,CLR,SCT,0.00,WeatherDisplay:10.37,2013-10-21 18:07:00,
2013-10-21 14:12:00,61.4,39.3,29.72,SSW,202,0.3,2.0,44,0.00,CLR,SCT,0.00,WeatherDisplay:10.37,2013-10-21 18:12:00,
2013-10-21 14:17:00,61.6,40.6,29.72,South,180,0.8,2.3,46,0.00,CLR,SCT,0.00,WeatherDisplay:10.37,2013-10-21 18:17:00,
2013-10-21 14:22:00,61.6,41.7,29.71,SW,225,0.1,2.3,48,0.00,CLR,SCT,0.00,WeatherDisplay:10.37,2013-10-21 18:22:00,
2013-10-21 14:27:00,61.5,40.5,29.72,West,264,0.3,1.1,46,0.00,CLR,SCT,0.00,WeatherDisplay:10.37,2013-10-21 18:27:00,
2013-10-21 14:32:00,61.5,41.6,29.71,West,263,0.1,1.1,48,0.00,CLR,SCT,0.00,WeatherDisplay:10.37,2013-10-21 18:32:00,
2013-10-21 14:37:00,61.6,40.0,29.72,WSW,243,0.3,1.1,45,0.00,CLR,SCT,0.00,WeatherDisplay:10.37,2013-10-21 18:37:00,
2013-10-21 14:42:00,61.4,39.3,29.72,ESE,121,1.3,4.0,44,0.00,CLR,SCT,0.00,WeatherDisplay:10.37,2013-10-21 18:42:00,
2013-10-21 14:47:00,61.3,39.2,29.71,SSW,199,1.0,2.3,44,0.00,CLR,SCT,0.00,WeatherDisplay:10.37,2013-10-21 18:47:00,
2013-10-21 14:52:00,61.2,39.7,29.72,SSW,192,0.8,2.3,45,0.00,CLR,SCT,0.00,WeatherDisplay:10.37,2013-10-21 18:52:00,
2013-10-21 14:57:00,61.2,39.1,29.71,South,188,1.1,3.5,44,0.00,CLR,SCT,0.00,WeatherDisplay:10.37,2013-10-21 18:57:00,
2013-10-21 15:02:00,61.3,39.2,29.71,SE,132,0.8,2.0,44,0.00,CLR,SCT,0.00,WeatherDisplay:10.37,2013-10-21 19:02:00,
2013-10-21 15:07:00,61.4,39.3,29.71,South,180,1.3,3.5,44,0.00,CLR,SCT,0.00,WeatherDisplay:10.37,2013-10-21 19:07:00,
2013-10-21 15:12:00,61.3,38.6,29.71,SSE,150,0.7,3.5,43,0.00,CLR,SCT,0.00,WeatherDisplay:10.37,2013-10-21 19:12:00,
2013-10-21 15:17:00,61.2,37.9,29.70,SW,221,2.1,3.5,42,0.00,CLR,SCT,0.00,WeatherDisplay:10.37,2013-10-21 19:17:00,
2013-10-21 15:22:00,61.1,38.4,29.70,South,184,0.3,2.3,43,0.00,CLR,SCT,0.00,WeatherDisplay:10.37,2013-10-21 19:22:00,
2013-10-21 15:27:00,61.0,38.3,29.70,South,180,0.5,1.1,43,0.00,CLR,SCT,0.00,WeatherDisplay:10.37,2013-10-21 19:27:00,
2013-10-21 15:32:00,61.0,38.9,29.70,SW,218,0.2,1.1,44,0.00,CLR,SCT,0.00,WeatherDisplay:10.37,2013-10-21 19:32:00,
2013-10-21 15:37:00,60.9,40.5,29.70,NE,36,0.3,2.3,47,0.00,CLR,SCT,0.00,WeatherDisplay:10.37,2013-10-21 19:37:00,
2013-10-21 15:42:00,60.7,38.6,29.69,NW,319,0.8,3.0,44,0.00,CLR,SCT,0.00,WeatherDisplay:10.37,2013-10-21 19:42:00,
2013-10-21 15:47:00,60.5,38.5,29.69,SSW,211,1.0,2.3,44,0.00,CLR,SCT,0.00,WeatherDisplay:10.37,2013-10-21 19:47:00,
2013-10-21 15:52:00,60.5,38.5,29.69,SE,144,0.2,1.1,44,0.00,CLR,SCT,0.00,WeatherDisplay:10.37,2013-10-21 19:52:00,
2013-10-21 15:57:00,60.5,41.2,29.69,NE,53,0.1,1.1,49,0.00,CLR,SCT,0.00,WeatherDisplay:10.37,2013-10-21 19:57:00,
2013-10-21 16:02:00,60.5,39.0,29.69,SSE,149,0.0,1.1,45,0.00,CLR,SCT,0.00,WeatherDisplay:10.37,2013-10-21 20:02:00,
2013-10-21 16:07:00,60.4,39.5,29.69,SW,234,0.4,2.3,46,0.00,CLR,SCT,0.00,WeatherDisplay:10.37,2013-10-21 20:07:00,
2013-10-21 16:12:00,60.2,39.3,29.69,SSE,164,0.2,1.1,46,0.00,CLR,SCT,0.00,WeatherDisplay:10.37,2013-10-21 20:12:00,
2013-10-21 16:17:00,60.1,38.7,29.69,South,172,0.1,2.3,45,0.00,CLR,SCT,0.00,WeatherDisplay:10.37,2013-10-21 20:17:00,
2013-10-21 16:22:00,60.1,39.2,29.68,SSE,166,0.1,1.1,46,0.00,CLR,SCT,0.00,WeatherDisplay:10.37,2013-10-21 20:22:00,
2013-10-21 16:27:00,59.9,39.6,29.68,SW,228,0.9,3.5,47,0.00,CLR,SCT,0.00,WeatherDisplay:10.37,2013-10-21 20:27:00,
2013-10-21 16:32:00,59.8,39.0,29.68,SW,225,0.4,2.3,46,0.00,CLR,SCT,0.00,WeatherDisplay:10.37,2013-10-21 20:32:00,
2013-10-21 16:37:00,59.8,37.8,29.68,SSW,211,0.5,2.3,44,0.00,CLR,SCT,0.00,WeatherDisplay:10.37,2013-10-21 20:37:00,
2013-10-21 16:42:00,59.8,38.4,29.68,SSW,211,0.1,0.0,45,0.00,CLR,SCT,0.00,WeatherDisplay:10.37,2013-10-21 20:42:00,
2013-10-21 16:47:00,59.6,39.9,29.68,SSW,211,0.0,1.1,48,0.00,CLR,SCT,0.00,WeatherDisplay:10.37,2013-10-21 20:47:00,
2013-10-21 16:52:00,59.5,39.2,29.68,SSW,211,0.0,0.0,47,0.00,CLR,SCT,0.00,WeatherDisplay:10.37,2013-10-21 20:52:00,
2013-10-21 16:57:00,59.3,39.6,29.68,SSW,211,0.0,0.0,48,0.00,CLR,SCT,0.00,WeatherDisplay:10.37,2013-10-21 20:57:00,
2013-10-21 17:02:00,59.2,40.6,29.68,SSW,211,0.0,1.1,50,0.00,CLR,SCT,0.00,WeatherDisplay:10.37,2013-10-21 21:02:00,
2013-10-21 17:07:00,58.9,40.3,29.69,SSW,211,0.0,0.0,50,0.00,CLR,SCT,0.00,WeatherDisplay:10.37,2013-10-21 21:07:00,
2013-10-21 17:12:00,58.6,40.5,29.69,SSW,211,0.0,1.1,51,0.00,CLR,SCT,0.00,WeatherDisplay:10.37,2013-10-21 21:12:00,
2013-10-21 17:17:00,58.4,40.3,29.69,SSW,211,0.1,0.0,51,0.00,CLR,SCT,0.00,WeatherDisplay:10.37,2013-10-21 21:17:00,
2013-10-21 17:22:00,58.4,38.8,29.69,SSW,211,0.0,0.0,48,0.00,CLR,SCT,0.00,WeatherDisplay:10.37,2013-10-21 21:22:00,
2013-10-21 17:27:00,58.3,40.2,29.69,SSW,211,0.0,0.0,51,0.00,CLR,SCT,0.00,WeatherDisplay:10.37,2013-10-21 21:27:00,
2013-10-21 17:32:00,58.2,39.6,29.69,South,188,1.0,2.3,50,0.00,CLR,SCT,0.00,WeatherDisplay:10.37,2013-10-21 21:32:00,
2013-10-21 17:37:00,58.0,40.5,29.69,South,188,0.0,1.1,52,0.00,CLR,SCT,0.00,WeatherDisplay:10.37,2013-10-21 21:37:00,
2013-10-21 17:42:00,57.7,39.7,29.69,South,188,0.0,0.0,51,0.00,CLR,SCT,0.00,WeatherDisplay:10.37,2013-10-21 21:42:00,
2013-10-21 17:47:00,57.3,40.3,29.69,South,188,0.0,1.1,53,0.00,CLR,SCT,0.00,WeatherDisplay:10.37,2013-10-21 21:47:00,
2013-10-21 17:52:00,56.9,40.9,29.69,SE,132,0.2,1.1,55,0.00,CLR,SCT,0.00,WeatherDisplay:10.37,2013-10-21 21:52:00,
2013-10-21 17:57:00,56.5,40.0,29.69,SE,130,0.1,1.1,54,0.00,CLR,SCT,0.00,WeatherDisplay:10.37,2013-10-21 21:57:00,
2013-10-21 18:02:00,56.3,40.3,29.69,SE,130,0.0,1.1,55,0.00,CLR,SCT,0.00,WeatherDisplay:10.37,2013-10-21 22:02:00,
2013-10-21 18:07:00,56.0,40.1,29.69,SSE,163,0.1,1.1,55,0.00,CLR,SCT,0.00,WeatherDisplay:10.37,2013-10-21 22:07:00,
2013-10-21 18:12:00,55.9,40.0,29.69,SSE,163,0.3,2.0,55,0.00,CLR,SCT,0.00,WeatherDisplay:10.37,2013-10-21 22:12:00,
2013-10-21 18:17:00,55.6,40.6,29.69,SSE,163,0.3,1.1,57,0.00,CLR,SCT,0.00,WeatherDisplay:10.37,2013-10-21 22:17:00,
2013-10-21 18:22:00,55.3,41.2,29.69,SSE,163,0.1,1.1,59,0.00,CLR,SCT,0.00,WeatherDisplay:10.37,2013-10-21 22:22:00,
2013-10-21 18:27:00,54.9,40.4,29.70,SSE,163,0.1,1.1,58,0.00,CLR,SCT,0.00,WeatherDisplay:10.37,2013-10-21 22:27:00,
2013-10-21 18:32:00,54.6,40.6,29.70,SSE,163,0.0,1.1,59,0.00,CLR,SCT,0.00,WeatherDisplay:10.37,2013-10-21 22:32:00,
2013-10-21 18:37:00,54.4,40.8,29.70,SSE,163,0.2,1.1,60,0.00,CLR,SCT,0.00,WeatherDisplay:10.37,2013-10-21 22:37:00,
2013-10-21 18:42:00,54.1,40.5,29.70,SSE,163,0.4,1.1,60,0.00,CLR,SCT,0.00,WeatherDisplay:10.37,2013-10-21 22:42:00,
2013-10-21 18:47:00,53.9,40.8,29.69,SSE,163,0.3,1.1,61,0.00,CLR,SCT,0.00,WeatherDisplay:10.37,2013-10-21 22:47:00,
2013-10-21 18:52:00,53.7,40.1,29.70,SSE,163,0.2,1.1,60,0.00,CLR,SCT,0.00,WeatherDisplay:10.37,2013-10-21 22:52:00,
2013-10-21 18:57:00,53.5,39.9,29.70,South,175,0.4,1.1,60,0.00,CLR,SCT,0.00,WeatherDisplay:10.37,2013-10-21 22:57:00,
2013-10-21 19:02:00,53.3,39.8,29.70,SSW,193,0.7,1.1,60,0.00,CLR,SCT,0.00,WeatherDisplay:10.37,2013-10-21 23:02:00,
2013-10-21 19:07:00,53.2,40.1,29.70,SSW,193,0.1,1.1,61,0.00,CLR,SCT,0.00,WeatherDisplay:10.37,2013-10-21 23:07:00,
2013-10-21 19:12:00,53.1,40.4,29.70,SSW,193,0.4,2.3,62,0.00,CLR,SCT,0.00,WeatherDisplay:10.37,2013-10-21 23:12:00,
2013-10-21 19:17:00,53.1,39.6,29.70,ESE,121,0.5,2.3,60,0.00,CLR,SCT,0.00,WeatherDisplay:10.37,2013-10-21 23:17:00,
2013-10-21 19:22:00,53.2,40.5,29.70,ESE,117,0.4,1.1,62,0.00,CLR,SCT,0.00,WeatherDisplay:10.37,2013-10-21 23:22:00,
2013-10-21 19:27:00,53.3,41.0,29.70,ESE,119,0.7,2.3,63,0.00,CLR,SCT,0.00,WeatherDisplay:10.37,2013-10-21 23:27:00,
2013-10-21 19:32:00,53.3,41.0,29.70,ESE,119,0.2,1.1,63,0.00,CLR,SCT,0.00,WeatherDisplay:10.37,2013-10-21 23:32:00,
2013-10-21 19:37:00,53.2,41.3,29.70,ESE,119,0.2,1.1,64,0.00,CLR,SCT,0.00,WeatherDisplay:10.37,2013-10-21 23:37:00,
2013-10-21 19:42:00,52.9,41.4,29.70,ESE,117,0.5,1.1,65,0.00,CLR,SCT,0.00,WeatherDisplay:10.37,2013-10-21 23:42:00,
2013-10-21 19:47:00,52.8,41.4,29.70,NNE,17,0.6,2.3,65,0.00,CLR,SCT,0.00,WeatherDisplay:10.37,2013-10-21 23:47:00,
2013-10-21 19:52:00,52.7,41.7,29.70,SE,135,0.3,2.3,66,0.00,CLR,SCT,0.00,WeatherDisplay:10.37,2013-10-21 23:52:00,
2013-10-21 19:57:00,52.7,42.0,29.70,SE,135,0.3,1.1,67,0.00,CLR,SCT,0.00,WeatherDisplay:10.37,2013-10-21 23:57:00,
2013-10-21 20:02:00,52.5,42.2,29.69,SE,135,0.4,1.1,68,0.00,CLR,SCT,0.00,WeatherDisplay:10.37,2013-10-22 00:02:00,
2013-10-21 20:07:00,52.4,42.5,29.70,SW,227,0.4,2.3,69,0.00,CLR,SCT,0.00,WeatherDisplay:10.37,2013-10-22 00:07:00,
2013-10-21 20:12:00,52.4,42.9,29.70,SSW,198,0.2,2.3,70,0.00,CLR,SCT,0.00,WeatherDisplay:10.37,2013-10-22 00:12:00,
2013-10-21 20:17:00,52.3,42.8,29.70,SSE,163,0.8,2.3,70,0.00,CLR,SCT,0.00,WeatherDisplay:10.37,2013-10-22 00:17:00,
2013-10-21 20:22:00,52.2,43.1,29.70,SSE,163,0.6,1.1,71,0.00,CLR,SCT,0.00,WeatherDisplay:10.37,2013-10-22 00:22:00,
2013-10-21 20:27:00,51.9,42.8,29.70,South,173,0.2,1.1,71,0.00,CLR,SCT,0.00,WeatherDisplay:10.37,2013-10-22 00:27:00,
2013-10-21 20:32:00,51.9,43.2,29.70,South,173,0.6,2.3,72,0.00,CLR,SCT,0.00,WeatherDisplay:10.37,2013-10-22 00:32:00,
2013-10-21 20:37:00,51.8,43.1,29.69,South,173,0.2,1.1,72,0.00,CLR,SCT,0.00,WeatherDisplay:10.37,2013-10-22 00:37:00,
2013-10-21 20:42:00,51.6,42.9,29.69,South,173,0.5,1.1,72,0.00,CLR,SCT,0.00,WeatherDisplay:10.37,2013-10-22 00:42:00,
2013-10-21 20:47:00,51.5,43.1,29.70,South,173,0.0,0.0,73,0.00,CLR,SCT,0.00,WeatherDisplay:10.37,2013-10-22 00:47:00,
2013-10-21 20:52:00,51.3,43.3,29.70,WSW,238,0.5,2.3,74,0.00,CLR,SCT,0.00,WeatherDisplay:10.37,2013-10-22 00:52:00,
2013-10-21 20:57:00,51.1,43.4,29.70,WSW,238,0.1,1.1,75,0.00,CLR,SCT,0.00,WeatherDisplay:10.37,2013-10-22 00:57:00,
2013-10-21 21:02:00,50.8,43.5,29.70,SW,226,0.3,2.3,76,0.00,CLR,SCT,0.00,WeatherDisplay:10.37,2013-10-22 01:02:00,
2013-10-21 21:07:00,50.6,43.3,29.69,SW,226,0.3,2.3,76,0.00,CLR,SCT,0.00,WeatherDisplay:10.37,2013-10-22 01:07:00,
2013-10-21 21:12:00,50.6,43.3,29.70,SW,226,0.2,1.1,76,0.00,CLR,SCT,0.00,WeatherDisplay:10.37,2013-10-22 01:12:00,
2013-10-21 21:17:00,50.5,43.6,29.69,South,188,0.5,1.1,77,0.00,CLR,SCT,0.00,WeatherDisplay:10.37,2013-10-22 01:17:00,
2013-10-21 21:22:00,50.5,43.6,29.69,South,188,0.5,1.1,77,0.00,CLR,SCT,0.00,WeatherDisplay:10.37,2013-10-22 01:22:00,
2013-10-21 21:27:00,50.3,43.4,29.69,South,188,0.4,1.1,77,0.00,CLR,SCT,0.00,WeatherDisplay:10.37,2013-10-22 01:27:00,
2013-10-21 21:32:00,50.2,43.6,29.69,South,179,0.1,1.1,78,0.00,CLR,SCT,0.00,WeatherDisplay:10.37,2013-10-22 01:32:00,
2013-10-21 21:37:00,50.2,43.6,29.69,South,179,0.4,2.3,78,0.00,CLR,SCT,0.00,WeatherDisplay:10.37,2013-10-22 01:37:00,
2013-10-21 21:42:00,50.2,43.6,29.69,South,179,0.1,1.1,78,0.00,CLR,SCT,0.00,WeatherDisplay:10.37,2013-10-22 01:42:00,
2013-10-21 21:47:00,50.1,43.8,29.68,South,179,0.2,1.1,79,0.00,CLR,SCT,0.00,WeatherDisplay:10.37,2013-10-22 01:47:00,
2013-10-21 21:52:00,50.1,43.5,29.68,South,179,0.4,2.3,78,0.00,CLR,SCT,0.00,WeatherDisplay:10.37,2013-10-22 01:52:00,
2013-10-21 21:54:00,50.1,43.8,29.68,South,179,0.2,1.1,79,0.00,CLR,SCT,0.00,WeatherDisplay:10.37,2013-10-22 01:54:00,
2013-10-21 21:59:00,50.1,43.8,29.68,SSE,147,0.3,1.1,79,0.00,CLR,SCT,0.00,WeatherDisplay:10.37,2013-10-22 01:59:00,
2013-10-21 22:04:00,50.0,44.1,29.68,SSE,163,0.2,1.1,80,0.00,CLR,SCT,0.00,WeatherDisplay:10.37,2013-10-22 02:04:00,
2013-10-21 22:09:00,50.1,44.2,29.68,SSE,163,0.2,1.1,80,0.00,CLR,SCT,0.00,WeatherDisplay:10.37,2013-10-22 02:09:00,
2013-10-21 22:14:00,50.1,44.2,29.68,SSE,163,0.3,1.1,80,0.00,CLR,SCT,0.00,WeatherDisplay:10.37,2013-10-22 02:14:00,
2013-10-21 22:19:00,50.2,44.3,29.68,WSW,254,1.4,3.5,80,0.00,CLR,SCT,0.00,WeatherDisplay:10.37,2013-10-22 02:19:00,
2013-10-21 22:24:00,50.3,44.4,29.68,SSW,202,0.3,1.1,80,0.00,CLR,SCT,0.00,WeatherDisplay:10.37,2013-10-22 02:24:00,
2013-10-21 22:29:00,50.3,44.7,29.68,SSW,202,0.3,1.1,81,0.00,CLR,SCT,0.00,WeatherDisplay:10.37,2013-10-22 02:29:00,
2013-10-21 22:34:00,50.4,44.8,29.68,SSW,202,0.6,2.3,81,0.00,CLR,SCT,0.00,WeatherDisplay:10.37,2013-10-22 02:34:00,
2013-10-21 22:39:00,50.3,45.0,29.68,SSW,202,0.3,1.1,82,0.00,CLR,SCT,0.00,WeatherDisplay:10.37,2013-10-22 02:39:00,
2013-10-21 22:44:00,50.3,45.0,29.68,SSW,202,0.5,2.3,82,0.00,CLR,SCT,0.00,WeatherDisplay:10.37,2013-10-22 02:44:00,
2013-10-21 22:49:00,50.4,45.1,29.67,SSW,202,0.4,1.1,82,0.00,CLR,SCT,0.00,WeatherDisplay:10.37,2013-10-22 02:49:00,
2013-10-21 22:54:00,50.4,45.1,29.67,SSW,202,0.3,1.1,82,0.00,CLR,SCT,0.00,WeatherDisplay:10.37,2013-10-22 02:54:00,
2013-10-21 22:59:00,50.3,45.0,29.67,SSW,202,0.2,1.1,82,0.00,CLR,SCT,0.00,WeatherDisplay:10.37,2013-10-22 02:59:00,
2013-10-21 23:04:00,50.3,45.0,29.67,SSW,202,0.9,1.1,82,0.00,CLR,SCT,0.00,WeatherDisplay:10.37,2013-10-22 03:04:00,
2013-10-21 23:09:00,50.2,45.2,29.66,WSW,250,0.4,2.3,83,0.00,CLR,SCT,0.00,WeatherDisplay:10.37,2013-10-22 03:09:00,
2013-10-21 23:14:00,50.0,45.0,29.66,WSW,250,0.1,1.1,83,0.00,CLR,SCT,0.00,WeatherDisplay:10.37,2013-10-22 03:14:00,
2013-10-21 23:19:00,49.9,44.9,29.66,WSW,250,0.1,1.1,83,0.00,CLR,SCT,0.00,WeatherDisplay:10.37,2013-10-22 03:19:00,
2013-10-21 23:24:00,49.6,45.0,29.66,WSW,250,0.1,1.1,84,0.00,CLR,SCT,0.00,WeatherDisplay:10.37,2013-10-22 03:24:00,
2013-10-21 23:29:00,49.6,45.0,29.66,WSW,250,0.2,1.1,84,0.00,CLR,SCT,0.00,WeatherDisplay:10.37,2013-10-22 03:29:00,
2013-10-21 23:34:00,49.5,44.9,29.66,WSW,250,0.2,1.1,84,0.00,CLR,SCT,0.00,WeatherDisplay:10.37,2013-10-22 03:34:00,
2013-10-21 23:39:00,49.4,45.1,29.65,WSW,250,0.1,1.1,85,0.00,CLR,SCT,0.00,WeatherDisplay:10.37,2013-10-22 03:39:00,
2013-10-21 23:44:00,49.3,45.0,29.65,WSW,250,0.0,1.1,85,0.00,CLR,SCT,0.00,WeatherDisplay:10.37,2013-10-22 03:44:00,
2013-10-21 23:49:00,49.2,44.9,29.65,WSW,250,0.0,0.0,85,0.00,CLR,SCT,0.00,WeatherDisplay:10.37,2013-10-22 03:49:00,
2013-10-21 23:54:00,49.0,45.0,29.65,WSW,250,0.0,1.1,86,0.00,CLR,SCT,0.00,WeatherDisplay:10.37,2013-10-22 03:54:00,
2013-10-21 23:59:00,48.8,44.8,29.65,WSW,250,0.0,0.0,86,0.00,CLR,SCT,0.00,WeatherDisplay:10.37,2013-10-22 03:59:00,